Starlink 30566

operational
NORAD ID: 58054 Int'l Des: 2023-158 Owner: SPXS Country: US Constellation: starlink
LEOCIRCULAR

关于 Starlink 30566

正在加载描述...

实时位置

正在加载3D地球...

即将过境

高度历史

Altitude vs Time

uPlot chart will show altitude changes over time

两行轨道根数

1 58054U 23158D 25260.01068143 -.00015434 00000-0 -11296-2 0 9999
2 58054 43.0018 254.2181 0000380 182.4088 177.6753 15.02548311107403
Epoch: Sep 17, 2025 • Age: 21 hours

当前状态

高度 560.9 km
速度 7.59 km/s
星下点 36.80°N, 56.55°E
发射日期 Oct 13, 2023
运行时间 1.9 years
类型 internet

技术详情

分类 Payload
质量 730.00 kg
干质量 700.00 kg
总质量 730.00 kg
长度 0.30 m
直径 4.10 m
跨度 29.00 m
形状 Box + pan
制造商 SPXS
平台类型 Starlink V2M
阶段状态 In Orbit
所有者/国家 SPXS/US

大型星座

Loading constellations...